This is the latest recevied weather packets stored in our database for station/object K3SV. If no packets are shown the sender has not sent any weather packets the latest 10 day(s).
| Time | Temp. | Humidity | Pressure | Rain* | Wind** | Luminosity | Snow |
|---|---|---|---|---|---|---|---|
| 1777553798 | 23.33° C | 93% | 1012.8 hPa | 0 mm | - | 161 W/m² | - |
| 1777553494 | 22.78° C | 95% | 1012.8 hPa | 0 mm | - | 204 W/m² | - |
| 1777553189 | 22.22° C | 96% | 1012.9 hPa | 0 mm | - | 169 W/m² | - |
| 1777552886 | 22.22° C | 97% | 1013 hPa | 0 mm | - | 146 W/m² | - |
| 1777552581 | 22.22° C | 97% | 1012.8 hPa | 0 mm | - | 134 W/m² | - |
| 1777552278 | 21.67° C | 98% | 1012.9 hPa | 0 mm | - | 121 W/m² | - |
| 1777551974 | 21.67° C | 98% | 1012.8 hPa | 0 mm | - | 100 W/m² | - |
| 1777551672 | 21.67° C | 98% | 1012.8 hPa | 0 mm | - | 89 W/m² | - |
| 1777551369 | 21.67° C | 98% | 1013 hPa | 0 mm | - | 65 W/m² | - |
| 1777551065 | 21.67° C | 98% | 1012.9 hPa | 0 mm | - | 61 W/m² | - |
| 1777550762 | 21.67° C | 99% | 1012.6 hPa | 0 mm | - | 56 W/m² | - |
| 1777550459 | 21.67° C | 99% | 1012.5 hPa | 0 mm | - | 76 W/m² | - |
| 1777550155 | 21.11° C | 99% | 1012.5 hPa | 0 mm | - | 85 W/m² | - |
| 1777549851 | 21.11° C | 99% | 1012.2 hPa | 0 mm | - | 71 W/m² | - |
| 1777549548 | 21.11° C | 99% | 1012.2 hPa | 0 mm | - | 36 W/m² | - |
| 1777549239 | 21.11° C | 99% | 1012.3 hPa | 0 mm | - | 27 W/m² | - |
| 1777548935 | 21.11° C | 99% | 1012.1 hPa | 0 mm | - | 24 W/m² | - |
| 1777548632 | 21.11° C | 99% | 1012.1 hPa | 0 mm | - | 23 W/m² | - |
| 1777548329 | 20.56° C | 99% | 1012.2 hPa | 0 mm | - | 21 W/m² | - |
| 1777548026 | 20.56° C | 99% | 1012.1 hPa | 0 mm | - | 18 W/m² | - |
| 1777547721 | 20.56° C | 99% | 1012 hPa | 0 mm | - | 12 W/m² | - |
| 1777547417 | 20.56° C | 99% | 1011.9 hPa | 0 mm | - | 10 W/m² | - |
| 1777547116 | 20.56° C | 99% | 1012.1 hPa | 0 mm | - | 10 W/m² | - |
| 1777546812 | 20.56° C | 99% | 1011.9 hPa | 0 mm | - | 9 W/m² | - |
| 1777546509 | 20.56° C | 98% | 1012 hPa | 0 mm | - | 5 W/m² | - |
* Rain latest hour (hover to see other rain measurements)
** Current wind speed in m/s (hover to see current wind gust speed)